This is the latest recevied weather packets stored in our database for station/object E25HA-1. If no packets are shown the sender has not sent any weather packets the latest 10 day(s).
| Time | Temp. | Humidity | Pressure | Rain* | Wind** | Luminosity | Snow |
|---|---|---|---|---|---|---|---|
| 1777862048 | 33.33° C | 99% | 993 hPa | - | - | 3 W/m² | - |
| 1777861726 | 33.33° C | 99% | 993 hPa | - | - | 4 W/m² | - |
| 1777861403 | 33.33° C | 99% | 993 hPa | - | - | 6 W/m² | - |
| 1777861081 | 32.78° C | 99% | 993 hPa | - | - | 10 W/m² | - |
| 1777860759 | 32.78° C | 99% | 993 hPa | - | - | 5 W/m² | - |
| 1777860436 | 32.22° C | 99% | 993 hPa | - | - | 8 W/m² | - |
| 1777860114 | 32.22° C | 99% | 993 hPa | - | - | 10 W/m² | - |
| 1777859791 | 31.67° C | 99% | 993 hPa | - | - | 6 W/m² | - |
| 1777859469 | 31.11° C | 99% | 993 hPa | - | - | 10 W/m² | - |
| 1777859147 | 31.11° C | 99% | 993 hPa | - | - | 4 W/m² | - |
| 1777858824 | 30.56° C | 99% | 993 hPa | - | - | 4 W/m² | - |
| 1777858502 | 30.56° C | 99% | 993 hPa | - | - | 4 W/m² | - |
| 1777858180 | 30° C | 99% | 993 hPa | - | - | 4 W/m² | - |
| 1777857857 | 29.44° C | 99% | 993 hPa | - | - | 5 W/m² | - |
| 1777857535 | 28.33° C | 99% | 993 hPa | - | - | 5 W/m² | - |
| 1777857213 | 27.78° C | 99% | 992 hPa | - | - | 5 W/m² | - |
| 1777824453 | 31.67° C | 99% | 990 hPa | - | - | 0 W/m² | - |
| 1777824131 | 31.67° C | 99% | 989 hPa | - | - | 0 W/m² | - |
| 1777823808 | 31.11° C | 99% | 989 hPa | - | - | 0 W/m² | - |
| 1777823486 | 31.11° C | 99% | 989 hPa | - | - | 0 W/m² | - |
| 1777823163 | 31.11° C | 99% | 989 hPa | - | - | 0 W/m² | - |
| 1777822841 | 31.11° C | 99% | 989 hPa | - | - | 0 W/m² | - |
| 1777822519 | 31.67° C | 99% | 989 hPa | - | - | 0 W/m² | - |
| 1777822196 | 31.67° C | 99% | 989 hPa | - | - | 0 W/m² | - |
| 1777821874 | 31.67° C | 99% | 989 hPa | - | - | 0 W/m² | - |
* Rain since midnight (hover to see other rain measurements)
** Current wind speed in m/s (hover to see current wind gust speed)